Wind_Speed
31 29 27 26 25 24 21 19 17 17 18 16 15 16 15 15 15 15 15 17 17 19 18 17 15 14 13 13 13 12 12 12 10 9 8 7 7 7 7 7 7 6 6
34 33 31 28 27 26 24 21 19 18 18 18 17 17 16 16 16 16 16 17 19 19 19 17 16 16 15 14 14 14 14 13 13 11 10 10 10 9 9 9 9 9 9
37 35 33 31 29 28 28 26 23 22 20 19 19 20 19 19 17 16 17 17 19 20 20 19 18 18 16 17 16 15 15 15 14 13 12 12 12 11 10 10 11 11 11
40 40 38 36 33 32 31 30 26 23 22 20 20 21 22 21 19 18 16 16 18 18 20 21 20 19 17 18 18 16 17 18 17 16 16 14 13 13 13 12 12 12 13
40 42 40 37 36 36 34 31 28 25 25 23 22 22 23 21 21 19 17 16 16 18 20 21 21 20 20 20 20 18 20 20 19 18 18 16 15 15 15 15 15 15 15
40 39 41 39 37 36 38 34 28 29 25 26 26 24 22 21 21 20 18 18 17 17 19 20 21 20 19 20 22 19 21 21 21 20 20 19 18 17 17 17 17 17 17
40 40 39 42 40 38 36 38 35 29 30 31 28 26 24 23 22 21 19 18 16 17 17 18 21 21 19 22 22 19 22 23 22 22 21 21 21 20 19 19 19 18 19
42 41 41 39 44 43 38 38 33 34 32 32 32 25 26 25 23 21 18 17 16 16 17 18 18 19 20 22 22 21 23 23 24 24 24 23 23 22 22 21 21 21 21
46 46 46 44 41 45 44 39 42 38 37 35 36 32 30 29 20 20 17 16 15 15 18 18 17 18 19 20 22 23 23 24 25 26 26 25 26 25 24 24 24 24 24
46 44 46 47 45 41 47 40 43 39 39 38 34 34 29 24 25 24 20 17 17 15 16 18 19 18 18 19 20 22 23 23 25 28 28 28 28 27 26 26 26 26 26
44 44 45 48 48 48 44 41 45 45 39 47 42 41 35 26 29 23 24 24 24 21 21 21 19 19 21 21 21 21 22 24 25 29 30 30 30 30 29 29 29 28 28
46 44 44 44 44 46 45 44 44 46 48 42 41 40 33 31 30 32 30 26 26 27 24 21 22 24 24 22 22 23 24 26 27 29 31 31 31 31 31 31 31 32 31
48 46 43 44 43 43 43 42 41 42 47 48 41 40 37 38 37 34 34 33 35 33 34 31 30 27 25 25 24 24 26 27 29 30 32 33 34 33 32 33 34 34 33
47 44 43 42 42 42 42 43 43 43 43 42 40 41 39 36 40 35 28 32 33 35 39 40 37 32 29 29 28 28 29 28 28 32 33 35 37 38 36 34 36 36 34
50 46 42 42 41 41 41 41 42 42 40 42 48 43 39 37 36 34 38 36 41 43 38 34 33 31 30 31 30 33 33 32 33 33 32 36 39 41 40 38 37 40 37
47 45 42 40 40 39 40 41 41 41 43 44 42 46 46 38 40 37 38 35 36 40 40 34 34 31 34 34 31 33 35 36 32 33 35 34 36 40 43 42 40 41 40
46 44 41 38 38 38 38 39 40 36 39 38 38 40 41 39 40 41 38 39 37 39 41 36 35 31 32 34 34 32 31 32 34 33 33 36 37 38 39 40 41 42 42
49 43 42 39 37 36 37 39 38 39 38 38 41 42 41 40 42 41 40 40 38 39 35 40 35 37 36 33 33 37 35 35 36 29 35 39 36 36 37 37 38 40 41
40 42 39 38 37 35 36 37 39 40 42 41 41 41 41 39 39 39 39 39 36 37 42 39 38 41 42 38 35 38 39 38 36 37 37 41 36 38 36 36 34 35 38
39 41 41 41 39 38 38 39 38 39 40 41 40 39 43 37 38 38 41 38 37 40 36 40 43 44 45 42 41 43 39 40 38 35 40 40 43 44 41 41 38 36 36
37 38 40 39 36 26 29 34 39 42 42 43 43 41 38 41 39 41 43 42 44 44 45 44 44 48 48 47 42 42 42 39 37 38 39 41 41 41 41 43 42 43 42
33 33 36 27 27 25 25 28 28 32 37 39 38 39 41 41 40 42 40 42 44 45 44 43 46 50 50 48 42 42 46 40 48 47 41 39 42 46 42 43 45 44 39
16 30 33 35 34 33 34 35 35 33 34 35 35 34 36 40 39 39 39 40 41 42 40 38 43 44 47 45 43 48 47 47 48 42 45 43 45 42 42 46 47 40 36
11 13 13 17 25 28 27 26 26 34 31 36 32 30 33 35 38 40 38 37 36 38 41 41 46 44 48 50 45 44 43 43 45 41 38 45 44 43 43 46 43 44 42
20 18 21 21 20 19 19 19 21 22 27 32 35 33 37 33 32 34 35 36 36 39 40 40 43 50 48 48 53 53 53 44 48 44 42 42 42 39 45 49 42 41 39
26 29 27 28 28 27 26 27 29 27 26 27 30 28 35 33 31 36 33 35 36 34 33 34 35 36 35 42 44 46 47 47 47 48 40 43 41 42 43 40 36 41 42
Wind_Direction
240 241 243 240 241 238 237 237 237 238 237 234 230 237 235 233 231 224 209 217 215 214 217 218 217 217 218 222 223 225 227 232 233 236 243 247 254 266 274 268 272 284 296
240 240 240 240 242 239 235 236 234 235 239 236 233 235 235 235 231 229 215 215 216 217 223 227 226 226 228 229 231 229 233 238 239 242 248 251 251 254 267 272 275 285 294
239 237 237 238 240 239 236 236 235 232 234 235 232 232 233 235 232 228 222 217 223 221 227 228 229 232 234 236 236 233 236 238 241 245 249 255 260 264 264 264 267 273 282
238 238 239 239 236 236 236 237 235 235 234 236 236 234 231 231 231 230 230 225 224 223 225 229 230 232 235 239 240 237 238 237 235 239 246 252 259 265 272 276 273 274 279
240 238 236 237 237 237 236 232 231 232 233 231 232 232 232 231 234 236 234 228 230 227 227 232 235 234 234 235 242 238 238 240 240 241 244 250 256 263 268 273 278 280 283
235 235 233 233 232 234 236 236 233 234 231 231 227 228 232 232 236 241 237 235 230 232 232 235 239 240 240 243 245 242 244 243 243 246 248 251 255 258 262 267 272 276 280
236 232 235 232 231 230 239 230 228 230 232 234 229 228 230 233 234 239 240 241 240 240 239 239 243 245 241 243 249 247 247 248 246 246 249 254 258 261 265 268 271 274 277
228 232 229 232 233 230 232 221 225 226 228 229 234 230 234 233 234 237 241 243 245 247 248 246 248 251 249 250 249 246 247 249 250 250 251 252 255 260 264 269 273 275 278
230 232 230 230 235 233 229 231 226 229 230 232 235 236 241 241 243 246 248 245 246 247 253 256 255 256 257 255 255 255 251 249 252 254 256 257 259 261 262 263 266 269 271
234 231 233 231 230 231 228 230 237 228 231 228 228 231 225 234 242 244 236 238 248 249 251 254 254 255 258 259 260 261 263 260 256 256 257 258 260 261 263 266 268 270 272
230 227 230 231 229 230 232 233 229 224 233 229 231 241 241 234 234 241 240 249 253 255 253 252 254 254 255 257 260 262 264 263 259 257 258 260 261 264 266 267 269 270 271
227 227 225 226 226 228 227 229 229 233 233 232 239 236 241 236 240 243 246 249 257 252 255 253 255 254 257 260 264 265 262 261 260 259 259 259 260 263 265 266 268 270 271
227 224 224 226 224 226 224 225 228 233 234 235 240 237 234 248 249 251 247 246 252 254 251 252 252 254 258 262 263 262 263 261 261 261 260 260 259 257 260 264 266 268 270
225 224 223 223 224 224 223 224 227 231 232 235 238 236 243 240 239 247 247 251 255 252 252 256 255 257 259 261 259 260 262 262 262 260 261 260 261 261 258 259 263 264 266
221 220 220 220 220 220 221 221 224 227 229 233 235 238 243 231 242 244 241 244 251 259 257 251 256 255 257 260 262 263 263 264 264 264 265 264 265 266 264 260 260 265 264
218 217 215 215 215 217 220 222 225 229 232 233 234 232 241 244 245 250 253 247 248 257 263 259 255 252 256 257 260 263 268 266 268 270 268 270 272 271 272 269 263 264 266
217 213 215 214 214 219 221 221 222 225 231 233 233 234 239 239 238 235 248 254 252 254 261 262 261 256 256 257 259 266 271 266 264 266 271 266 272 274 275 274 273 270 270
209 212 210 213 217 221 223 221 223 225 227 228 232 238 239 239 241 244 244 245 240 253 258 266 263 267 259 260 263 263 264 268 263 268 268 273 266 271 274 273 272 271 271
197 208 211 218 223 225 228 227 225 228 231 231 232 235 237 239 239 242 246 245 249 248 254 258 258 259 263 260 267 261 264 269 274 265 266 268 271 266 266 270 270 272 272
192 205 216 222 229 229 228 229 233 233 234 235 234 235 237 235 238 241 239 245 252 252 254 258 257 258 262 262 254 258 262 269 266 266 265 270 268 271 271 267 270 271 273
198 211 220 223 226 212 226 227 227 229 235 238 234 235 237 240 232 245 245 247 247 252 254 257 259 261 265 266 259 264 262 266 264 268 263 267 271 270 269 266 264 270 270
176 184 199 196 201 209 220 225 232 225 235 235 239 238 239 241 241 245 246 248 253 258 262 262 262 265 265 269 272 268 261 275 262 266 268 261 268 266 270 270 262 257 259
174 188 194 207 215 211 213 224 221 225 220 239 239 244 242 242 247 249 251 253 257 260 264 267 268 267 271 270 268 268 267 270 270 269 266 261 269 268 268 275 264 257 255
201 190 204 216 223 227 225 231 234 229 239 235 240 246 241 246 245 246 250 254 255 259 260 261 266 265 268 266 265 265 260 267 259 269 264 264 268 265 265 272 261 256 252
218 210 220 222 217 215 220 226 234 240 244 245 247 246 249 247 246 247 253 254 259 265 263 262 261 262 262 268 262 263 262 261 265 267 268 268 266 269 266 261 256 255 255
234 233 238 239 246 245 243 246 247 248 249 250 256 249 241 246 248 254 257 256 263 266 266 264 263 261 262 256 260 261 263 261 262 261 263 265 264 270 265 259 262 250 257
Height
3124 3127 3130 3132 3133 3135 3137 3138 3140 3140 3141 3142 3143 3145 3147 3148 3150 3152 3155 3156 3159 3161 3162 3164 3167 3169 3171 3173 3174 3176 3177 3179 3180 3181 3181 3182 3183 3184 3184 3185 3185 3184 3184
3119 3121 3124 3127 3129 3131 3133 3134 3136 3138 3138 3139 3140 3142 3144 3146 3147 3149 3152 3153 3155 3158 3160 3162 3164 3166 3168 3170 3172 3174 3176 3177 3179 3180 3180 3180 3180 3181 3182 3183 3183 3183 3182
3113 3116 3118 3121 3124 3127 3128 3130 3132 3134 3135 3136 3137 3139 3141 3142 3144 3146 3148 3151 3152 3155 3157 3159 3161 3163 3165 3167 3169 3172 3173 3175 3176 3177 3178 3179 3180 3180 3180 3180 3180 3180 3180
3105 3109 3112 3115 3119 3121 3123 3125 3128 3130 3131 3133 3133 3135 3137 3139 3141 3143 3146 3148 3149 3152 3154 3156 3158 3160 3163 3164 3166 3168 3170 3171 3172 3174 3175 3176 3177 3178 3178 3178 3178 3178 3178
3097 3101 3105 3109 3111 3114 3116 3120 3123 3126 3127 3129 3130 3130 3133 3136 3137 3140 3142 3145 3146 3148 3150 3152 3154 3157 3159 3161 3162 3164 3166 3167 3169 3171 3171 3173 3174 3175 3175 3176 3176 3176 3176
3089 3093 3097 3101 3104 3107 3109 3113 3118 3120 3122 3124 3125 3127 3129 3132 3134 3136 3139 3141 3143 3145 3147 3148 3150 3153 3156 3158 3159 3161 3163 3164 3166 3167 3169 3170 3170 3171 3172 3172 3172 3172 3172
3080 3084 3089 3093 3096 3099 3104 3108 3111 3114 3116 3116 3120 3122 3125 3127 3130 3132 3134 3137 3140 3142 3143 3145 3146 3148 3151 3153 3155 3158 3159 3160 3162 3163 3165 3166 3167 3168 3168 3168 3169 3169 3168
3071 3075 3080 3084 3088 3092 3095 3099 3103 3107 3109 3111 3115 3118 3120 3124 3125 3128 3130 3133 3135 3137 3139 3141 3143 3144 3146 3148 3150 3153 3154 3156 3157 3159 3160 3161 3162 3163 3164 3165 3165 3165 3165
3061 3065 3071 3075 3079 3083 3087 3092 3094 3098 3102 3106 3108 3111 3113 3117 3122 3123 3126 3128 3131 3133 3134 3136 3138 3140 3141 3144 3146 3148 3150 3151 3153 3154 3156 3157 3158 3158 3159 3159 3159 3159 3159
3051 3056 3061 3066 3070 3074 3079 3084 3089 3093 3094 3098 3104 3103 3107 3113 3114 3118 3121 3124 3126 3128 3130 3131 3133 3135 3137 3139 3141 3142 3144 3147 3148 3149 3150 3152 3152 3153 3153 3154 3155 3155 3154
3041 3046 3051 3056 3061 3066 3071 3076 3082 3083 3087 3092 3093 3098 3102 3106 3109 3113 3116 3119 3121 3124 3125 3127 3128 3130 3132 3134 3135 3136 3138 3140 3141 3142 3143 3145 3147 3147 3148 3148 3149 3148 3148
3031 3036 3041 3046 3052 3057 3063 3068 3072 3076 3081 3084 3084 3084 3091 3098 3102 3107 3111 3112 3115 3118 3119 3120 3122 3125 3127 3128 3130 3130 3132 3133 3133 3134 3136 3137 3140 3141 3141 3142 3142 3142 3142
3021 3027 3033 3038 3043 3049 3055 3060 3064 3068 3073 3077 3081 3081 3087 3092 3095 3099 3102 3104 3108 3111 3112 3113 3117 3119 3120 3122 3123 3124 3124 3126 3127 3127 3128 3129 3131 3132 3133 3133 3134 3134 3135
3012 3019 3024 3030 3036 3041 3047 3052 3056 3061 3065 3069 3074 3077 3082 3085 3089 3091 3094 3096 3098 3100 3103 3106 3109 3112 3114 3116 3116 3116 3117 3119 3120 3121 3121 3122 3122 3123 3125 3126 3125 3125 3126
3002 3009 3015 3021 3027 3033 3038 3043 3048 3053 3058 3062 3067 3071 3074 3078 3081 3083 3086 3088 3091 3091 3094 3099 3101 3104 3105 3107 3108 3108 3109 3111 3113 3113 3114 3115 3115 3114 3116 3118 3118 3116 3118
2994 3000 3006 3012 3018 3024 3029 3035 3040 3044 3049 3054 3058 3062 3063 3068 3074 3076 3078 3081 3082 3083 3084 3090 3093 3096 3096 3097 3099 3100 3102 3103 3104 3106 3107 3107 3107 3107 3108 3110 3111 3109 3109
2985 2992 2999 3005 3011 3016 3021 3027 3031 3036 3041 3046 3050 3054 3058 3062 3065 3067 3069 3072 3075 3075 3076 3079 3083 3086 3087 3089 3091 3092 3093 3094 3096 3098 3098 3099 3099 3099 3099 3101 3102 3103 3102
2973 2984 2991 2996 3003 3009 3014 3019 3024 3029 3033 3038 3042 3046 3049 3053 3056 3059 3061 3064 3066 3068 3069 3070 3073 3077 3078 3081 3082 3082 3083 3084 3086 3088 3090 3091 3090 3090 3091 3092 3092 3093 3093
2962 2974 2982 2988 2995 3001 3006 3011 3016 3021 3026 3030 3034 3038 3042 3045 3048 3050 3054 3055 3059 3061 3062 3062 3064 3066 3068 3071 3072 3073 3075 3076 3077 3079 3079 3081 3081 3081 3082 3082 3082 3083 3083
2956 2964 2975 2980 2986 2992 2997 3003 3006 3011 3016 3021 3025 3029 3033 3037 3038 3042 3045 3048 3050 3052 3054 3053 3054 3055 3057 3060 3061 3063 3066 3067 3068 3068 3070 3070 3071 3073 3072 3073 3074 3073 3073
2951 2959 2967 2973 2978 2985 2989 2994 2999 3004 3008 3012 3016 3020 3022 3027 3030 3032 3036 3038 3039 3041 3043 3043 3043 3043 3044 3046 3050 3054 3054 3056 3056 3057 3058 3060 3061 3062 3062 3063 3063 3064 3064
2944 2953 2959 2966 2972 2977 2982 2987 2991 2996 2999 3002 3007 3010 3013 3018 3021 3023 3025 3027 3029 3031 3031 3032 3033 3031 3033 3035 3039 3043 3044 3044 3044 3047 3048 3050 3049 3049 3051 3052 3053 3052 3053
2938 2946 2952 2959 2965 2971 2975 2979 2984 2988 2992 2995 2999 3002 3005 3009 3012 3014 3016 3017 3018 3019 3021 3022 3021 3021 3021 3025 3030 3030 3032 3032 3034 3034 3037 3036 3038 3038 3040 3040 3041 3041 3042
2937 2943 2948 2955 2961 2965 2969 2972 2976 2979 2983 2988 2991 2994 2997 3000 3003 3005 3007 3007 3008 3009 3010 3012 3011 3011 3012 3012 3016 3020 3021 3021 3019 3022 3023 3024 3026 3028 3029 3031 3031 3030 3031
2939 2942 2949 2953 2957 2960 2963 2966 2970 2973 2976 2980 2983 2985 2988 2991 2994 2996 2996 2997 2998 2999 3000 3000 3001 3001 3001 3002 3002 3007 3006 3009 3009 3011 3012 3014 3015 3015 3016 3018 3019 3020 3021
2936 2940 2944 2948 2950 2953 2955 2958 2962 2965 2968 2971 2973 2976 2979 2981 2985 2986 2986 2988 2988 2989 2990 2990 2989 2988 2989 2990 2991 2992 2995 2996 2998 2998 3002 3003 3003 3005 3004 3007 3008 3010 3012